TimeCST,TemperatureF,Dew PointF,Humidity,Sea Level PressureIn,VisibilityMPH,Wind Direction,Wind SpeedMPH,Gust SpeedMPH,PrecipitationIn,Events,Conditions,WindDirDegrees,DateUTC
12:15 AM,33.8,28.4,81,29.58,10.0,NNW,16.1,21.9,N/A,,Overcast,330,2012-12-21 06:15:00
12:35 AM,33.8,28.4,81,29.58,10.0,NNW,18.4,26.5,N/A,,Mostly Cloudy,330,2012-12-21 06:35:00
12:55 AM,33.8,28.4,81,29.60,10.0,NW,15.0,23.0,N/A,,Mostly Cloudy,320,2012-12-21 06:55:00
1:15 AM,33.8,26.6,75,29.61,10.0,NW,16.1,24.2,N/A,,Overcast,320,2012-12-21 07:15:00
1:55 AM,32.0,26.6,80,29.65,10.0,NW,15.0,25.3,N/A,,Overcast,320,2012-12-21 07:55:00
2:15 AM,32.0,26.6,80,29.66,10.0,NW,17.3,25.3,N/A,,Overcast,320,2012-12-21 08:15:00
2:35 AM,32.0,26.6,80,29.68,10.0,NW,18.4,28.8,N/A,,Overcast,320,2012-12-21 08:35:00
2:55 AM,32.0,24.8,75,29.69,10.0,NW,18.4,27.6,N/A,,Overcast,320,2012-12-21 08:55:00
3:15 AM,32.0,24.8,75,29.69,10.0,NW,15.0,25.3,N/A,,Overcast,320,2012-12-21 09:15:00
3:35 AM,32.0,24.8,75,29.71,10.0,NW,17.3,25.3,N/A,,Overcast,320,2012-12-21 09:35:00
3:55 AM,32.0,24.8,75,29.71,10.0,NW,19.6,25.3,N/A,,Overcast,320,2012-12-21 09:55:00
4:15 AM,32.0,24.8,75,29.73,10.0,NW,16.1,21.9,N/A,,Overcast,320,2012-12-21 10:15:00
4:35 AM,32.0,23.0,69,29.74,10.0,NW,19.6,26.5,N/A,,Overcast,320,2012-12-21 10:35:00
4:55 AM,32.0,24.8,75,29.76,10.0,NW,15.0,23.0,N/A,,Overcast,310,2012-12-21 10:55:00
5:15 AM,32.0,24.8,75,29.77,10.0,WNW,16.1,24.2,N/A,,Overcast,300,2012-12-21 11:15:00
5:55 AM,30.2,24.8,80,29.80,10.0,NW,16.1,25.3,N/A,,Overcast,310,2012-12-21 11:55:00
6:15 AM,30.2,23.0,75,29.81,10.0,NW,18.4,24.2,N/A,,Overcast,320,2012-12-21 12:15:00
6:35 AM,30.2,23.0,75,29.83,10.0,NW,15.0,26.5,N/A,,Overcast,310,2012-12-21 12:35:00
6:55 AM,28.4,23.0,80,29.84,10.0,NW,16.1,24.2,N/A,,Overcast,310,2012-12-21 12:55:00
7:15 AM,28.4,21.2,74,29.86,10.0,NW,17.3,20.7,N/A,,Overcast,310,2012-12-21 13:15:00
7:35 AM,28.4,21.2,74,29.88,10.0,NW,16.1,24.2,N/A,,Overcast,310,2012-12-21 13:35:00
7:55 AM,28.4,21.2,74,29.89,10.0,NW,13.8,25.3,N/A,,Overcast,310,2012-12-21 13:55:00
8:15 AM,28.4,21.2,74,29.90,10.0,NW,18.4,25.3,N/A,,Overcast,310,2012-12-21 14:15:00
8:35 AM,28.4,21.2,74,29.91,10.0,NW,20.7,28.8,N/A,,Overcast,310,2012-12-21 14:35:00
8:55 AM,26.6,19.4,74,29.92,10.0,NW,19.6,27.6,N/A,,Overcast,320,2012-12-21 14:55:00
9:15 AM,26.6,19.4,74,29.93,10.0,NW,16.1,26.5,N/A,,Overcast,310,2012-12-21 15:15:00
9:35 AM,26.6,19.4,74,29.94,10.0,NW,13.8,25.3,N/A,,Overcast,310,2012-12-21 15:35:00
9:55 AM,26.6,19.4,74,29.96,10.0,NW,16.1,28.8,N/A,,Overcast,310,2012-12-21 15:55:00
10:15 AM,26.6,19.4,74,29.96,10.0,NW,16.1,21.9,N/A,,Overcast,310,2012-12-21 16:15:00
10:35 AM,26.6,19.4,74,29.96,10.0,NW,16.1,23.0,N/A,,Overcast,310,2012-12-21 16:35:00
10:55 AM,28.4,19.4,69,29.96,10.0,NW,13.8,24.2,N/A,,Overcast,320,2012-12-21 16:55:00
11:15 AM,28.4,19.4,69,29.97,10.0,WNW,17.3,24.2,N/A,,Overcast,300,2012-12-21 17:15:00
11:35 AM,28.4,19.4,69,29.97,10.0,NW,18.4,23.0,N/A,,Overcast,310,2012-12-21 17:35:00
11:55 AM,28.4,21.2,74,29.97,10.0,NW,15.0,20.7,N/A,,Overcast,310,2012-12-21 17:55:00
12:15 PM,28.4,21.2,74,29.98,10.0,NW,12.7,20.7,N/A,,Overcast,310,2012-12-21 18:15:00
12:55 PM,30.2,21.2,69,29.99,10.0,WNW,10.4,19.6,N/A,,Overcast,300,2012-12-21 18:55:00
1:15 PM,30.2,19.4,64,29.99,10.0,NW,10.4,-,N/A,,Mostly Cloudy,310,2012-12-21 19:15:00
1:35 PM,30.2,21.2,69,30.00,10.0,WNW,10.4,16.1,N/A,,Mostly Cloudy,300,2012-12-21 19:35:00
1:55 PM,30.2,19.4,64,30.01,10.0,NW,11.5,-,N/A,,Scattered Clouds,310,2012-12-21 19:55:00
2:15 PM,30.2,19.4,64,30.01,10.0,NW,13.8,21.9,N/A,,Clear,310,2012-12-21 20:15:00
2:35 PM,30.2,19.4,64,30.02,10.0,NW,13.8,20.7,N/A,,Clear,310,2012-12-21 20:35:00
2:55 PM,30.2,19.4,64,30.03,10.0,NW,11.5,18.4,N/A,,Clear,310,2012-12-21 20:55:00
3:15 PM,30.2,19.4,64,30.04,10.0,NW,11.5,17.3,N/A,,Clear,310,2012-12-21 21:15:00
3:35 PM,30.2,19.4,64,30.05,10.0,WNW,11.5,16.1,N/A,,Clear,290,2012-12-21 21:35:00
4:15 PM,28.4,19.4,69,30.07,10.0,WNW,9.2,16.1,N/A,,Clear,300,2012-12-21 22:15:00
4:35 PM,26.6,19.4,74,30.09,10.0,NW,6.9,-,N/A,,Clear,310,2012-12-21 22:35:00
4:55 PM,26.6,19.4,74,30.10,10.0,WNW,9.2,-,N/A,,Clear,300,2012-12-21 22:55:00
5:15 PM,26.6,17.6,69,30.10,10.0,NW,6.9,-,N/A,,Clear,310,2012-12-21 23:15:00
5:35 PM,26.6,17.6,69,30.11,10.0,WNW,6.9,-,N/A,,Clear,290,2012-12-21 23:35:00
5:55 PM,23.0,17.6,80,30.12,10.0,West,6.9,-,N/A,,Clear,280,2012-12-21 23:55:00
6:15 PM,23.0,17.6,80,30.12,10.0,WNW,5.8,-,N/A,,Clear,290,2012-12-22 00:15:00
6:55 PM,21.2,15.8,80,30.13,10.0,West,5.8,-,N/A,,Clear,280,2012-12-22 00:55:00
7:15 PM,21.2,15.8,80,30.14,10.0,West,6.9,-,N/A,,Clear,280,2012-12-22 01:15:00
7:35 PM,21.2,15.8,80,30.15,10.0,WNW,5.8,-,N/A,,Clear,290,2012-12-22 01:35:00
7:55 PM,21.2,15.8,80,30.15,10.0,West,8.1,-,N/A,,Clear,280,2012-12-22 01:55:00
8:15 PM,23.0,15.8,74,30.15,10.0,WNW,8.1,-,N/A,,Clear,290,2012-12-22 02:15:00
8:35 PM,21.2,14.0,74,30.15,10.0,WNW,10.4,-,N/A,,Clear,300,2012-12-22 02:35:00
8:55 PM,21.2,14.0,74,30.15,10.0,NW,6.9,-,N/A,,Clear,310,2012-12-22 02:55:00
9:15 PM,21.2,14.0,74,30.15,10.0,NW,4.6,-,N/A,,Clear,310,2012-12-22 03:15:00
9:35 PM,21.2,14.0,74,30.15,10.0,WNW,8.1,-,N/A,,Clear,300,2012-12-22 03:35:00
9:55 PM,19.4,14.0,80,30.16,10.0,West,4.6,-,N/A,,Clear,280,2012-12-22 03:55:00
10:15 PM,17.6,12.2,79,30.16,10.0,West,5.8,-,N/A,,Clear,270,2012-12-22 04:15:00
10:35 PM,17.6,12.2,79,30.16,10.0,West,5.8,-,N/A,,Clear,270,2012-12-22 04:35:00
10:55 PM,17.6,12.2,79,30.16,10.0,West,5.8,-,N/A,,Clear,270,2012-12-22 04:55:00
11:15 PM,17.6,10.4,73,30.16,10.0,WNW,5.8,-,N/A,,Clear,290,2012-12-22 05:15:00
11:35 PM,17.6,10.4,73,30.16,10.0,WNW,4.6,-,N/A,,Clear,290,2012-12-22 05:35:00
11:55 PM,17.6,10.4,73,30.16,10.0,WNW,6.9,-,N/A,,Clear,300,2012-12-22 05:55:00